Terminal Aerodrome Forecast
Issued by NWS

Home | Current Version | Previous Version | Graphics & Text | Print | Product List | Glossary On
Versions: 1 2 3 4 5 6 7 8 9 10 11 12 13 14 15 16 17 18 19 20 21 22 23 24 25 26 27 28 29 30 31 32 33 34 35 36 37 38 39 40 41 42 43 44 45 46 47 48 49 50
000
FTUS43 KLOT 301400 AAA
TAFGYY
TAF AMD
KGYY 301417Z 3014/3112 21004KT P6SM BKN014 BKN200
     FM301600 22012G18KT P6SM BKN025
      TEMPO 3018/3022 4SM -TSRA BR BKN015CB
     FM310100 22007KT P6SM BKN250
     FM310500 VRB03KT 4SM BR SCT007
     FM310800 VRB03KT 2SM BR BKN015
      TEMPO 3108/3112 BKN007=

USA.gov is the U.S. government's official web portal to all federal, state and local government web resources and services.